WB5LJO-13 Weather Reports


time (UTC)temp
C
wind
direction
speed
KPH
gust
KPH
rain 1hr
cm
rain 24hr
cm
rain mn
cm
humidity
%
barometer
mb
20260507203318 25 41 0.0 0.0 1.12 0.00 0.00 13
20260507202816 25 186 0.0 0.0 1.12 0.00 0.00 12
20260507202318 25 25 4.8 0.0 1.12 0.00 0.00 13
20260507201817 25 80 0.0 0.0 1.12 0.00 0.00 13
20260507201318 25 52 0.0 0.0 1.12 0.00 0.00 14
20260507200818 26 214 0.0 0.0 1.12 0.00 0.00 14
20260507200319 26 176 0.0 0.0 1.12 0.00 0.00 14
20260507195818 26 152 3.2 0.0 1.12 0.00 0.00 12
20260507195318 26 160 9.7 0.0 1.12 0.00 0.00 11
20260507194818 26 197 8.0 0.0 1.12 0.00 0.00 12
20260507194318 26 165 9.7 0.0 1.12 0.00 0.00 12
20260507193817 25 141 9.7 0.0 1.12 0.00 0.00 15
20260507193318 25 135 12.9 0.0 1.12 0.00 0.00 15
20260507192818 25 35 0.0 0.0 1.12 0.00 0.00 15
20260507192318 25 24 8.0 0.0 1.12 0.00 0.00 16
20260507191818 25 135 0.0 0.0 1.12 0.00 0.00 16
20260507191317 24 103 6.4 0.0 1.12 0.00 0.00 16
20260507190818 23 186 0.0 0.0 1.12 0.00 0.00 17
20260507190318 22 30 4.8 0.0 1.12 0.00 0.00 17
20260507185817 22 125 0.0 0.0 1.12 0.00 0.00 18
20260507185318 22 142 0.0 0.0 1.12 0.00 0.00 18
20260507184818 23 35 0.0 0.0 1.12 0.00 0.00 18
20260507184318 23 267 8.0 0.0 1.12 0.00 0.00 18
20260507183818 23 52 9.7 0.0 1.12 0.00 0.00 20
20260507183318 23 48 8.0 0.0 1.12 0.00 0.00 20
20260507182817 23 17 0.0 0.0 1.12 0.00 0.00 21
20260507182318 22 330 0.0 0.0 1.12 0.00 0.00 21
20260507181817 22 4 8.0 0.0 1.12 0.00 0.00 21
20260507181317 22 17 0.0 0.0 1.12 0.00 0.00 21
20260507180817 22 62 0.0 0.0 1.12 0.00 0.00 22
20260507180317 22 1 4.8 0.0 1.12 0.00 0.00 21
20260507175817 22 18 9.7 0.0 1.12 0.00 0.00 22
20260507175317 22 38 9.7 0.0 1.12 0.00 0.00 22
20260507174817 22 0 11.3 0.0 1.12 0.00 0.00 22
20260507174317 22 44 11.3 0.0 1.12 0.00 0.00 23
20260507173818 22 34 8.0 0.0 1.12 0.00 0.00 24
20260507173317 22 338 0.0 0.0 1.12 0.00 0.00 23
20260507172817 22 4 9.7 0.0 1.12 0.00 0.00 23
20260507172318 22 8 12.9 0.0 1.12 0.00 0.00 23
20260507171817 22 20 11.3 0.0 1.12 0.00 0.00 25
20260507171317 22 21 14.5 0.0 1.12 0.00 0.00 28
20260507170817 21 338 0.0 0.0 1.12 0.00 0.00 27
20260507170318 21 7 4.8 0.0 1.12 0.00 0.00 28
20260507165817 21 302 0.0 0.0 1.12 0.00 0.00 28
20260507165318 21 8 8.0 0.0 1.12 0.00 0.00 29
20260507164818 21 46 4.8 0.0 1.12 0.00 0.00 29
20260507164318 21 34 3.2 0.0 1.12 0.00 0.00 30
20260507163817 21 329 4.8 0.0 1.12 0.00 0.00 30
20260507163318 21 359 4.8 0.0 1.12 0.00 0.00 30
20260507162817 20 59 11.3 0.0 1.12 0.00 0.00 14
20260507162318 20 60 4.8 0.0 1.12 0.00 0.00 31
20260507161818 20 17 11.3 0.0 1.12 0.00 0.00 31
20260507161317 20 30 8.0 0.0 1.12 0.00 0.00 32
20260507160818 20 7 9.7 0.0 1.12 0.00 0.00 33
20260507160317 19 42 8.0 0.0 1.12 0.00 0.00 33
20260507155818 19 6 12.9 0.0 1.12 0.00 0.00 34
20260507155318 19 24 9.7 0.0 1.12 0.00 0.00 34
20260507154818 18 319 9.7 0.0 1.12 0.00 0.00 35
20260507154318 18 6 12.9 0.0 1.12 0.00 0.00 35
20260507153818 18 11 12.9 0.0 1.12 0.00 0.00 36
20260507153318 18 24 11.3 0.0 1.12 0.00 0.00 36
20260507152818 18 32 11.3 0.0 1.12 0.00 0.00 36
20260507152318 17 24 11.3 0.0 1.12 0.00 0.00 37
20260507151818 17 15 9.7 0.0 1.12 0.00 0.00 37
20260507151318 17 17 16.1 0.0 1.12 0.00 0.00 37
20260507150818 17 7 12.9 0.0 1.12 0.00 0.00 37
20260507150318 17 77 9.7 0.0 1.12 0.00 0.00 38
20260507145818 16 8 11.3 0.0 1.12 0.00 0.00 38
20260507145318 16 18 16.1 0.0 1.12 0.00 0.00 38
20260507144818 16 34 12.9 0.0 1.12 0.00 0.00 38
20260507144318 16 28 16.1 0.0 1.12 0.00 0.00 39
20260507143818 16 352 11.3 0.0 1.12 0.00 0.00 39
20260507143318 16 4 11.3 0.0 1.12 0.00 0.00 42
20260507142818 15 345 9.7 0.0 1.12 0.00 0.00 41
20260507142318 15 21 9.7 0.0 1.12 0.00 0.00 42
20260507141818 15 4 11.3 0.0 1.12 0.00 0.00 42
20260507141318 15 14 4.8 0.0 1.12 0.00 0.00 42
20260507140818 15 21 16.1 0.0 1.12 0.00 0.00 43
20260507140318 15 44 14.5 0.0 1.12 0.00 0.00 43
20260507135818 14 8 12.9 0.0 1.12 0.00 0.00 43
20260507135318 14 4 9.7 0.0 1.12 0.00 0.00 43
20260507134819 14 20 12.9 0.0 1.12 0.00 0.00 35
20260507134318 14 32 14.5 0.0 1.12 0.00 0.00 34
20260507133818 14 6 17.7 0.0 1.12 0.00 0.00 42
20260507133318 14 35 16.1 0.0 1.12 0.00 0.00 42
20260507132818 14 17 16.1 0.0 1.12 0.00 0.00 41
20260507132318 14 44 17.7 0.0 1.12 0.00 0.00 41
20260507131818 14 17 16.1 0.0 1.12 0.00 0.00 41
20260507131318 13 347 11.3 0.0 1.12 0.00 0.00 41
20260507130818 13 42 16.1 0.0 1.12 0.00 0.00 42
20260507130318 13 13 11.3 0.0 1.12 0.00 0.00 43
20260507125818 13 0 14.5 0.0 1.12 0.00 0.00 44
20260507125318 13 359 11.3 0.0 1.12 0.00 0.00 45
20260507124818 13 0 11.3 0.0 1.12 0.00 0.00 46
20260507124318 12 359 12.9 0.0 1.12 0.00 0.00 46
20260507123819 12 21 12.9 0.0 1.12 0.00 0.00 46
20260507123318 12 31 12.9 0.0 1.12 0.00 0.00 46
20260507122819 12 10 8.0 0.0 1.12 0.00 0.00 46
20260507122318 12 20 8.0 0.0 1.12 0.00 0.00 46
20260507121820 12 41 8.0 0.0 1.12 0.00 0.00 46
20260507121318 12 27 9.7 0.0 1.12 0.00 0.00 46
20260507120818 12 10 20.9 0.0 1.12 0.00 0.00 45
20260507120318 12 17 14.5 0.0 1.12 0.00 0.00 43
20260507115818 12 352 4.8 0.0 1.12 0.00 0.00 42
20260507115318 12 0 4.8 0.0 1.12 0.00 0.00 41
20260507114818 12 7 9.7 0.0 1.12 0.00 0.00 39
20260507114318 11 35 9.7 0.0 1.12 0.00 0.00 38
20260507113818 11 359 11.3 0.0 1.12 0.00 0.00 37
20260507113318 11 350 9.7 0.0 1.12 0.00 0.00 35
20260507112817 11 28 9.7 0.0 1.12 0.00 0.00 33
20260507112318 11 10 22.5 0.0 1.12 0.00 0.00 32
20260507111818 11 8 12.9 0.0 1.12 0.00 0.00 31
20260507111318 11 37 0.0 0.0 1.12 0.00 0.00 31
20260507110817 11 51 0.0 0.0 1.12 0.00 0.00 31
20260507110318 12 359 9.7 0.0 1.12 0.00 0.00 30
20260507105817 12 27 14.5 0.0 1.12 0.00 0.00 31
20260507105318 12 42 12.9 0.0 1.12 0.00 0.00 31
20260507104818 12 25 17.7 0.0 1.12 0.00 0.00 33
20260507104317 12 205 0.0 0.0 1.12 0.00 0.00 33
20260507103817 12 205 0.0 0.0 1.12 0.00 0.00 33
20260507103317 12 205 0.0 0.0 1.12 0.00 0.00 33
20260507102817 12 205 0.0 0.0 1.12 0.00 0.00 33
20260507102318 12 205 0.0 0.0 1.12 0.00 0.00 33
20260507101818 12 205 0.0 0.0 1.12 0.00 0.00 33
20260507101317 12 205 0.0 0.0 1.12 0.00 0.00 33
20260507100817 12 205 0.0 0.0 1.12 0.00 0.00 32
20260507100317 12 205 0.0 0.0 1.12 0.00 0.00 32
20260507095817 12 205 0.0 0.0 1.12 0.00 0.00 31
20260507095317 13 205 0.0 0.0 1.12 0.00 0.00 31
20260507094817 13 205 0.0 0.0 1.12 0.00 0.00 30
20260507094318 13 205 0.0 0.0 1.12 0.00 0.00 29
20260507093818 13 205 0.0 0.0 1.12 0.00 0.00 29
20260507093318 13 205 0.0 0.0 1.12 0.00 0.00 29
20260507092818 13 205 0.0 0.0 1.12 0.00 0.00 28
20260507092318 14 205 0.0 0.0 1.12 0.00 0.00 28
20260507091818 14 205 0.0 0.0 1.12 0.00 0.00 28
20260507091317 15 205 0.0 0.0 1.12 0.00 0.00 27
20260507090817 15 205 0.0 0.0 1.12 0.00 0.00 27
20260507090318 15 205 0.0 0.0 1.12 0.00 0.00 26
20260507085818 15 205 0.0 0.0 1.12 0.00 0.00 26
20260507085318 15 205 0.0 0.0 1.12 0.00 0.00 25
20260507084818 15 198 11.3 0.0 1.12 0.00 0.00 25
20260507084317 16 217 4.8 0.0 1.12 0.00 0.00 24
20260507083817 16 170 4.8 0.0 1.12 0.00 0.00 23
20260507083318 16 188 0.0 0.0 1.12 0.00 0.00 22
20260507082818 16 233 8.0 0.0 1.12 0.00 0.00 22
20260507082317 15 233 0.0 0.0 1.12 0.00 0.00 22
20260507081817 15 203 6.4 0.0 1.12 0.00 0.00 22
20260507081317 16 159 0.0 0.0 1.12 0.00 0.00 21
20260507080818 16 159 0.0 0.0 1.12 0.00 0.00 21
20260507080317 16 159 0.0 0.0 1.12 0.00 0.00 21
20260507075817 16 191 9.7 0.0 1.12 0.00 0.00 20
20260507075318 15 170 0.0 0.0 1.12 0.00 0.00 20
20260507074818 15 229 9.7 0.0 1.12 0.00 0.00 21
20260507074318 15 180 0.0 0.0 1.12 0.00 0.00 22
20260507073817 15 180 0.0 0.0 1.12 0.00 0.00 22
20260507073317 15 180 0.0 0.0 1.12 0.00 0.00 21
20260507072818 15 17 0.0 0.0 1.12 0.00 0.00 21
20260507072318 16 17 0.0 0.0 1.12 0.00 0.00 21
20260507071818 16 17 0.0 0.0 1.12 0.00 0.00 20
20260507071318 16 17 0.0 0.0 1.12 0.00 0.00 20
20260507070818 16 17 0.0 0.0 1.12 0.00 0.00 19
20260507070318 16 17 0.0 0.0 1.12 0.00 0.00 19
20260507065818 16 17 0.0 0.0 1.12 0.00 0.00 19
20260507065318 16 17 0.0 0.0 1.12 0.00 0.00 18
20260507064818 16 17 0.0 0.0 1.12 0.00 0.00 18
20260507064318 17 10 0.0 0.0 1.12 0.00 0.00 17
20260507063818 17 10 0.0 0.0 1.12 0.00 0.00 18
20260507063318 17 10 0.0 0.0 1.12 0.00 0.00 17
20260507062818 17 10 0.0 0.0 1.12 0.00 0.00 17
20260507062318 17 10 0.0 0.0 1.12 0.00 0.00 17
20260507061818 17 10 0.0 0.0 1.12 0.00 0.00 16
20260507061318 18 10 0.0 0.0 1.12 0.00 0.00 16
20260507060818 18 10 0.0 0.0 1.12 0.00 0.00 16
20260507060318 18 14 0.0 0.0 1.12 0.00 0.00 16
20260507055818 18 14 0.0 0.0 1.12 0.00 0.00 16
20260507055318 18 18 0.0 0.0 1.12 0.00 0.00 16
20260507054818 18 30 4.8 0.0 1.12 0.00 0.00 16
20260507054318 18 66 0.0 0.0 1.12 0.00 0.00 16
20260507053818 18 14 0.0 0.0 1.12 0.00 0.00 16
20260507053318 18 14 0.0 0.0 1.12 0.00 0.00 15
20260507052818 18 7 0.0 0.0 1.12 0.00 0.00 15
20260507052318 18 359 0.0 0.0 1.12 0.00 0.00 15
20260507051818 18 3 0.0 0.0 1.12 0.00 0.00 16
20260507051318 18 30 3.2 0.0 1.12 0.00 0.00 16
20260507050818 18 338 0.0 0.0 1.12 0.00 0.00 15
20260507050318 18 338 0.0 0.0 1.12 0.00 0.00 15
20260507045818 19 338 0.0 0.0 1.12 0.00 0.00 15
20260507045318 19 338 0.0 0.0 1.12 0.00 0.00 14
20260507044818 19 338 0.0 0.0 1.12 0.00 0.00 14
20260507044318 19 338 0.0 0.0 1.12 0.00 0.00 13
20260507043818 19 338 0.0 0.0 1.12 0.00 0.00 13
20260507043318 20 338 0.0 0.0 1.12 0.00 0.00 13
20260507042818 20 305 4.8 0.0 1.12 0.00 0.00 13
20260507042318 20 352 0.0 0.0 1.12 0.00 0.00 13
20260507041818 20 8 0.0 0.0 1.12 0.00 0.00 13
20260507041318 20 359 8.0 0.0 1.12 0.00 0.00 13
20260507040818 20 0 0.0 0.0 1.12 0.00 0.00 13
20260507040318 20 8 9.7 0.0 1.12 0.00 0.00 13
20260507035818 20 311 12.9 0.0 1.12 0.00 0.00 14
20260507035318 20 354 12.9 0.0 1.12 0.00 0.00 14
20260507034817 20 316 6.4 0.0 1.12 0.00 0.00 14
20260507034318 20 11 4.8 0.0 1.12 0.00 0.00 14
20260507033818 20 352 8.0 0.0 1.12 0.00 0.00 15
20260507033318 20 318 3.2 0.0 1.12 0.00 0.00 16
20260507032818 20 20 4.8 0.0 1.12 0.00 0.00 16
20260507032318 20 32 0.0 0.0 1.12 0.00 0.00 14
20260507031818 20 357 0.0 0.0 1.12 0.00 0.00 15
20260507031318 20 305 0.0 0.0 1.12 0.00 0.00 15
20260507030818 20 10 3.2 0.0 1.12 0.00 0.00 16
20260507030318 20 4 4.8 0.0 1.12 0.00 0.00 15
20260507025818 20 11 0.0 0.0 1.12 0.00 0.00 16
20260507025318 21 359 0.0 0.0 1.12 0.00 0.00 15
20260507024818 21 295 0.0 0.0 1.12 0.00 0.00 15
20260507024318 21 295 0.0 0.0 1.12 0.00 0.00 15
20260507023818 21 288 9.7 0.0 1.12 0.00 0.00 15
20260507023318 21 330 0.0 0.0 1.12 0.00 0.00 15
20260507022818 21 4 12.9 0.0 1.12 0.00 0.00 15
20260507022318 21 354 11.3 0.0 1.12 0.00 0.00 15
20260507021818 21 352 6.4 0.0 1.12 0.00 0.00 14
20260507021318 22 15 0.0 0.0 1.12 0.00 0.00 15
20260507020818 22 335 0.0 0.0 1.12 0.00 0.00 15
20260507020318 22 359 4.8 0.0 1.12 0.00 0.00 15
20260507015818 22 359 0.0 0.0 1.12 0.00 0.00 15
20260507015318 22 27 12.9 0.0 1.12 0.00 0.00 15
20260507014818 22 294 0.0 0.0 1.12 0.00 0.00 15
20260507014318 22 342 0.0 0.0 1.12 0.00 0.00 9
20260507013818 22 15 8.0 0.0 1.12 0.00 0.00 9
20260507013318 22 314 0.0 0.0 1.12 0.00 0.00 15
20260507012818 23 314 0.0 0.0 1.12 0.00 0.00 14
20260507012318 23 14 3.2 0.0 1.12 0.00 0.00 14
20260507011818 23 7 0.0 0.0 1.12 0.00 0.00 13
20260507011318 23 229 0.0 0.0 1.12 0.00 0.00 14
20260507010818 23 6 16.1 0.0 1.12 0.00 0.00 14
20260507010318 23 28 0.0 0.0 1.12 0.00 0.00 13
20260507005818 23 359 4.8 0.0 1.12 0.00 0.00 14
20260507005318 23 359 6.4 0.0 1.12 0.00 0.00 14
20260507004818 24 359 4.8 0.0 1.12 0.00 0.00 13
20260507004318 24 285 0.0 0.0 1.12 0.00 0.00 13
20260507003817 24 359 12.9 0.0 1.12 0.00 0.00 0
20260507003318 25 259 11.3 0.0 1.12 0.00 0.00 4
20260507002818 25 342 6.4 0.0 1.12 0.00 0.00 14
20260507002319 25 225 6.4 0.0 1.12 0.00 0.00 13
20260507001818 25 304 16.1 0.0 1.12 0.00 0.00 13
20260507001318 25 302 9.7 0.0 1.12 0.00 0.00 13
20260507000818 25 304 11.3 0.0 1.12 0.00 0.00 13
20260507000320 25 288 8.0 0.0 1.12 0.00 0.00 13
20260506235818 25 270 12.9 0.0 1.12 0.00 0.00 13
20260506235318 25 277 8.0 0.0 1.12 0.00 0.00 13
20260506234818 25 321 14.5 0.0 1.12 0.00 0.00 13
20260506234318 25 335 14.5 0.0 1.12 0.00 0.00 13
20260506233818 25 359 4.8 0.0 1.12 0.00 0.00 13
20260506233318 25 224 8.0 0.0 1.12 0.00 0.00 13
20260506232818 25 329 12.9 0.0 1.12 0.00 0.00 13
20260506232318 25 295 20.9 0.0 1.12 0.00 0.00 13
20260506231818 25 305 14.5 0.0 1.12 0.00 0.00 14
20260506231318 25 281 8.0 0.0 1.12 0.00 0.00 13
20260506230818 25 232 6.4 0.0 1.12 0.00 0.00 12
20260506230319 25 336 14.5 0.0 1.12 0.00 0.00 13
20260506225818 25 201 4.8 0.0 1.12 0.00 0.00 13
20260506225318 25 314 14.5 0.0 1.12 0.00 0.00 13
20260506224818 25 281 14.5 0.0 1.12 0.00 0.00 12
20260506224319 26 287 9.7 0.0 1.12 0.00 0.00 12
20260506223818 26 253 8.0 0.0 1.12 0.00 0.00 13
20260506223318 26 207 8.0 0.0 1.12 0.00 0.00 12
20260506222818 25 283 8.0 0.0 1.12 0.00 0.00 12
20260506222318 25 274 8.0 0.0 1.12 0.00 0.00 13
20260506221818 25 359 8.0 0.0 1.12 0.00 0.00 13
20260506221318 25 340 12.9 0.0 1.12 0.00 0.00 13
20260506220818 25 285 6.4 0.0 1.12 0.00 0.00 13
20260506220318 25 295 19.3 0.0 1.12 0.00 0.00 13
20260506215818 25 198 29.0 0.0 1.12 0.00 0.00 12
20260506215318 25 204 8.0 0.0 1.12 0.00 0.00 13
20260506214818 25 359 0.0 0.0 1.12 0.00 0.00 13
20260506214318 25 235 14.5 0.0 1.12 0.00 0.00 12
20260506213818 25 280 0.0 0.0 1.12 0.00 0.00 13
20260506213318 25 250 9.7 0.0 1.12 0.00 0.00 14
20260506212818 25 270 0.0 0.0 1.12 0.00 0.00 13
20260506212318 25 283 14.5 0.0 1.12 0.00 0.00 13
20260506211818 25 20 4.8 0.0 1.12 0.00 0.00 13
20260506211318 25 340 17.7 0.0 1.12 0.00 0.00 13
20260506210818 25 30 0.0 0.0 1.12 0.00 0.00 14
20260506210318 24 271 16.1 0.0 1.12 0.00 0.00 15
20260506205818 24 316 6.4 0.0 1.12 0.00 0.00 15
20260506205318 24 290 16.1 0.0 1.12 0.00 0.00 15
20260506204818 24 308 12.9 0.0 1.12 0.00 0.00 15
20260506204318 24 339 19.3 0.0 1.12 0.00 0.00 14
20260506203818 24 232 19.3 0.0 1.12 0.00 0.00 15